Temp
89 91 91 90 90 95 96 92 91 91 89 91 91 90 92 91 90 92 94 82 80 81 82 83 83 83 82 82 82 82 82 81 81 81 81 81 80 81 81 80 81 80 80
87 91 91 91 91 93 95 92 89 88 89 91 90 90 90 92 90 89 93 93 81 80 81 83 83 83 83 82 82 82 82 82 81 81 81 80 80 80 80 80 80 80 80
87 87 91 90 91 91 87 89 89 90 91 92 89 91 91 91 91 89 91 94 93 82 82 82 82 82 82 83 82 82 81 81 81 81 80 80 80 80 80 80 80 80 80
88 89 91 90 92 89 90 91 89 89 91 90 89 90 90 91 89 90 92 92 94 95 85 83 82 82 82 83 83 81 81 81 81 80 80 80 80 80 80 80 80 79 79
89 89 90 90 88 89 83 85 89 88 87 89 89 91 90 91 91 95 90 92 91 93 94 82 82 81 83 84 83 82 81 80 80 80 80 80 80 80 79 79 79 79 79
89 87 89 88 88 84 88 89 84 88 86 87 88 89 90 92 92 92 92 94 90 91 92 89 92 91 82 81 82 82 82 81 80 80 79 80 79 79 79 79 78 78 78
89 88 90 87 87 86 87 85 86 84 86 89 84 89 88 88 89 92 92 91 89 91 90 90 90 90 91 81 79 79 80 81 81 80 80 79 79 79 78 78 78 78 78
88 88 87 88 87 90 85 83 83 84 87 88 83 83 82 84 88 91 90 89 87 91 90 88 87 85 88 88 82 77 76 76 78 79 80 79 79 79 78 77 77 77 77
88 87 87 88 86 86 89 84 84 81 84 86 82 82 80 81 83 87 85 88 86 87 88 88 86 85 84 87 86 82 74 74 76 77 78 78 78 78 78 78 77 77 77
89 88 87 86 84 88 85 85 87 83 81 83 86 85 82 80 79 81 86 86 89 89 84 88 89 87 85 88 81 74 74 74 74 75 76 76 76 77 78 78 78 77 77
88 89 87 85 84 86 84 84 83 81 85 83 84 85 83 84 82 79 78 83 87 88 89 89 88 90 87 87 89 78 74 73 73 73 74 74 75 76 77 78 78 78 78
90 87 87 85 85 85 83 84 82 81 81 82 84 83 83 82 83 81 79 79 80 84 88 87 87 88 89 89 84 75 75 74 72 72 71 72 73 73 75 76 77 78 79
91 87 85 84 86 84 84 83 81 82 81 82 80 84 86 84 85 83 81 80 80 83 84 87 87 87 87 87 86 75 77 73 71 70 70 70 71 71 72 73 74 75 77
91 89 85 85 85 85 84 83 84 84 83 82 80 81 84 85 86 84 82 79 77 80 83 80 84 87 86 86 82 74 82 73 72 70 68 68 69 69 70 71 72 72 73
92 88 86 85 85 85 83 82 84 82 82 82 82 81 82 86 87 86 85 82 78 74 77 83 83 86 85 86 83 83 82 76 71 69 68 67 68 68 69 69 70 70 70
87 87 85 85 84 83 83 81 83 83 81 83 84 82 81 85 85 86 85 84 83 79 74 83 83 84 84 83 82 81 82 74 73 70 68 67 67 68 68 68 68 68 69
85 84 83 83 84 82 82 80 80 82 81 80 81 80 79 80 83 85 86 85 83 82 76 80 83 84 80 80 81 82 82 81 83 71 69 67 66 67 67 67 67 67 67
83 82 81 80 80 83 82 80 80 82 81 80 80 80 80 83 80 80 83 79 81 80 78 72 77 80 79 81 80 78 80 84 83 78 69 67 67 66 66 65 65 65 64
77 77 76 76 78 77 82 81 81 81 81 81 81 80 80 81 79 81 80 80 82 81 80 78 76 81 81 82 80 76 79 80 83 77 70 69 68 67 65 64 63 62 61
76 71 73 73 77 80 80 80 81 81 80 81 81 80 80 80 79 78 79 78 78 78 78 77 76 78 74 77 77 74 78 83 82 85 79 74 73 73 67 65 64 64 61
77 72 73 74 77 78 78 80 81 81 79 80 81 81 82 80 75 75 80 79 77 77 77 75 76 77 73 71 71 79 77 79 79 82 82 82 83 83 82 74 75 71 65
75 73 73 75 75 78 73 70 76 81 80 79 79 80 79 74 72 67 66 66 69 71 71 74 74 73 72 72 77 76 75 73 71 81 77 77 80 79 81 82 74 68 66
74 77 77 76 75 77 67 67 68 81 81 80 78 77 76 74 71 79 69 65 65 64 64 70 69 71 69 72 72 67 70 70 70 76 73 71 78 77 81 82 71 66 63
76 76 77 76 77 80 65 63 66 78 78 79 78 76 74 69 70 75 76 76 75 76 76 76 73 73 73 73 70 69 68 67 69 72 73 69 77 76 78 78 69 66 64
77 78 79 78 77 78 60 61 65 80 79 76 71 72 71 69 64 62 71 72 73 74 70 63 61 60 60 59 61 68 69 66 65 68 74 73 74 73 72 68 69 65 63
78 80 78 78 74 76 59 59 64 81 74 75 67 68 62 66 59 58 69 71 70 73 74 73 73 69 65 71 61 67 65 59 60 64 73 71 69 63 54 63 66 68 66
MSLP
1018.14 1018.12 1018.42 1018.47 1018.46 1017.99 1017.77 1018.11 1018.13 1018.10 1018.22 1017.88 1017.84 1017.79 1017.49 1017.38 1017.57 1017.32 1017.06 1017.60 1018.05 1018.18 1018.25 1018.36 1018.49 1018.76 1019.06 1019.37 1019.65 1019.80 1020.05 1020.34 1020.64 1020.87 1021.05 1021.27 1021.57 1021.64 1021.75 1021.87 1021.94 1022.00 1022.13
1018.18 1018.12 1018.16 1018.23 1018.17 1017.94 1017.86 1018.09 1018.22 1018.21 1018.00 1017.73 1017.68 1017.82 1017.60 1017.21 1017.29 1017.48 1017.03 1017.01 1017.73 1018.00 1018.09 1018.16 1018.23 1018.47 1018.71 1019.09 1019.45 1019.59 1019.75 1020.01 1020.28 1020.55 1020.73 1021.01 1021.19 1021.38 1021.52 1021.63 1021.71 1021.80 1021.89
1018.34 1018.30 1017.81 1018.15 1017.99 1018.15 1018.43 1018.11 1018.19 1017.85 1017.57 1017.52 1017.51 1017.37 1017.31 1017.22 1017.02 1017.24 1017.05 1016.81 1016.82 1017.57 1017.81 1017.94 1017.97 1018.26 1018.39 1018.72 1018.98 1019.21 1019.44 1019.67 1019.95 1020.20 1020.36 1020.58 1020.88 1021.08 1021.23 1021.32 1021.38 1021.46 1021.56
1018.05 1017.95 1017.70 1017.79 1017.78 1018.10 1017.92 1017.58 1017.78 1017.67 1017.40 1017.51 1017.43 1017.26 1017.17 1017.10 1017.15 1017.01 1016.86 1016.94 1016.67 1016.59 1017.05 1017.48 1017.82 1017.91 1018.10 1018.33 1018.47 1018.69 1019.04 1019.26 1019.49 1019.79 1019.99 1020.17 1020.42 1020.68 1020.89 1020.98 1021.03 1021.06 1021.12
1017.62 1017.68 1017.64 1017.69 1018.01 1017.93 1018.45 1018.16 1017.69 1017.91 1017.54 1017.37 1017.26 1017.05 1017.05 1016.95 1016.87 1016.56 1016.81 1016.75 1016.76 1016.59 1016.40 1017.16 1017.57 1017.84 1017.88 1017.89 1017.99 1018.25 1018.55 1018.79 1019.15 1019.41 1019.64 1019.84 1020.00 1020.20 1020.44 1020.57 1020.65 1020.71 1020.73
1017.32 1017.72 1017.52 1017.67 1017.92 1018.23 1017.76 1017.79 1018.20 1017.83 1018.04 1017.71 1017.49 1017.07 1017.12 1016.99 1016.92 1016.78 1016.67 1016.60 1017.03 1016.70 1016.54 1016.79 1016.51 1016.51 1017.76 1017.97 1017.97 1017.91 1018.03 1018.28 1018.54 1018.92 1019.12 1019.35 1019.53 1019.73 1019.92 1020.08 1020.21 1020.28 1020.36
1016.89 1017.12 1016.94 1017.41 1017.55 1017.61 1017.70 1018.04 1018.10 1017.82 1017.68 1017.57 1017.47 1016.59 1016.76 1017.18 1017.00 1016.96 1016.83 1017.07 1017.17 1016.80 1017.05 1017.05 1016.93 1017.03 1016.81 1017.52 1018.08 1018.20 1018.13 1018.03 1018.19 1018.24 1018.61 1018.83 1018.99 1019.17 1019.37 1019.61 1019.73 1019.82 1019.92
1016.78 1016.96 1017.02 1017.05 1017.31 1017.29 1017.97 1018.19 1018.31 1017.83 1017.50 1017.72 1017.36 1017.11 1016.21 1016.39 1016.45 1016.81 1017.24 1017.35 1017.50 1017.07 1017.15 1017.30 1017.49 1017.73 1017.43 1017.35 1018.23 1018.40 1018.39 1018.33 1018.24 1018.21 1018.16 1018.23 1018.43 1018.63 1018.84 1018.95 1019.14 1019.34 1019.43
1016.44 1016.72 1016.91 1016.87 1017.40 1017.76 1017.35 1018.02 1018.09 1018.18 1017.31 1017.62 1018.11 1017.56 1016.48 1015.90 1016.49 1016.67 1017.32 1017.38 1017.70 1017.63 1017.48 1017.43 1017.60 1017.92 1018.08 1017.84 1017.86 1018.28 1018.85 1018.69 1018.38 1018.19 1018.16 1018.14 1018.16 1018.11 1018.21 1018.36 1018.52 1018.73 1018.87
1015.96 1016.42 1016.80 1017.09 1017.45 1017.14 1017.56 1017.73 1017.95 1018.11 1018.14 1017.41 1017.66 1018.00 1018.14 1017.89 1016.83 1016.25 1016.64 1017.12 1017.46 1017.40 1017.89 1017.59 1017.53 1017.69 1017.95 1017.74 1018.44 1019.03 1019.04 1018.90 1018.68 1018.47 1018.36 1018.28 1018.17 1018.02 1017.82 1017.79 1017.90 1018.03 1018.14
1015.76 1016.06 1016.49 1016.86 1017.18 1017.20 1017.57 1017.84 1018.00 1018.29 1018.00 1017.88 1017.67 1017.60 1018.01 1017.92 1018.04 1017.39 1016.70 1016.66 1016.93 1017.18 1017.55 1017.42 1017.61 1017.45 1017.67 1017.91 1017.75 1018.46 1018.75 1018.75 1018.84 1018.70 1018.43 1018.26 1018.18 1018.02 1017.85 1017.59 1017.41 1017.42 1017.51
1015.31 1015.81 1016.23 1016.52 1016.75 1016.88 1017.40 1017.59 1017.89 1018.17 1018.31 1018.29 1017.94 1017.95 1017.73 1017.55 1017.24 1017.20 1016.93 1016.82 1016.92 1016.80 1017.04 1017.27 1017.25 1017.32 1017.40 1017.49 1017.93 1018.44 1018.54 1018.50 1018.43 1018.30 1018.28 1018.22 1018.03 1017.81 1017.66 1017.52 1017.31 1017.02 1016.86
1014.65 1015.40 1016.22 1016.57 1016.75 1017.11 1017.27 1017.52 1017.95 1018.05 1018.35 1018.31 1018.44 1017.71 1017.61 1017.72 1017.74 1017.58 1017.25 1016.78 1016.60 1016.60 1016.77 1017.12 1016.96 1017.25 1017.31 1017.37 1017.37 1018.09 1017.99 1018.09 1018.17 1018.10 1018.05 1017.85 1017.72 1017.61 1017.37 1017.20 1017.07 1016.89 1016.62
1014.36 1015.01 1016.12 1016.35 1016.56 1016.73 1017.02 1017.35 1017.60 1017.92 1018.04 1018.29 1018.30 1018.43 1017.98 1017.43 1017.46 1017.52 1017.41 1017.10 1016.50 1015.98 1015.82 1016.34 1016.52 1016.83 1017.08 1017.14 1017.29 1017.86 1017.28 1017.52 1017.67 1017.83 1017.72 1017.59 1017.50 1017.34 1017.16 1016.88 1016.67 1016.56 1016.39
1014.26 1014.98 1015.44 1016.20 1016.46 1016.77 1017.09 1017.38 1017.26 1017.51 1017.72 1017.94 1017.82 1017.91 1018.00 1017.47 1017.24 1017.19 1017.26 1017.43 1017.06 1016.18 1015.69 1015.46 1015.77 1016.13 1016.62 1016.65 1016.86 1017.13 1016.86 1016.70 1017.08 1017.05 1017.10 1017.01 1016.86 1016.77 1016.73 1016.51 1016.18 1015.96 1015.83
1014.58 1015.04 1015.62 1015.69 1015.94 1016.70 1017.29 1017.47 1017.08 1017.09 1017.38 1017.38 1017.28 1017.34 1017.70 1017.48 1017.10 1016.95 1017.00 1017.06 1016.83 1016.49 1015.87 1015.70 1015.40 1015.70 1015.82 1016.33 1016.65 1016.78 1016.50 1016.38 1016.04 1016.08 1016.13 1016.06 1016.09 1016.00 1015.89 1015.78 1015.56 1015.32 1015.07
1014.52 1015.21 1015.82 1015.97 1015.99 1016.02 1016.94 1017.33 1017.14 1016.84 1016.88 1017.16 1017.26 1017.14 1017.18 1017.40 1017.19 1016.87 1016.59 1016.66 1016.67 1016.56 1016.33 1015.60 1015.68 1015.44 1015.68 1015.80 1015.80 1016.04 1015.93 1015.57 1015.01 1014.90 1015.13 1015.30 1015.28 1015.21 1015.03 1014.88 1014.70 1014.51 1014.30
1013.52 1014.23 1015.41 1016.21 1016.40 1016.05 1016.38 1016.88 1016.83 1016.26 1016.31 1016.53 1016.62 1016.75 1016.62 1016.61 1016.73 1016.94 1016.80 1016.65 1016.51 1016.66 1016.49 1016.15 1015.79 1015.55 1015.24 1015.05 1014.96 1015.20 1015.11 1014.64 1014.29 1013.92 1014.48 1014.50 1014.19 1014.08 1013.92 1013.79 1013.64 1013.45 1013.32
1012.86 1013.60 1012.65 1014.33 1015.30 1015.66 1015.86 1016.06 1016.23 1016.05 1015.92 1016.02 1016.13 1016.18 1016.22 1016.30 1016.33 1016.26 1016.55 1016.29 1015.98 1015.88 1015.65 1015.47 1015.32 1015.12 1014.82 1014.50 1014.10 1014.24 1013.94 1013.65 1013.42 1012.86 1012.90 1013.11 1012.98 1012.85 1012.69 1012.42 1012.26 1012.16 1012.08
1012.15 1012.37 1011.77 1012.84 1013.85 1015.11 1015.33 1015.40 1015.42 1015.45 1015.47 1015.46 1015.70 1015.76 1015.82 1015.84 1015.81 1015.90 1016.11 1016.17 1016.02 1015.92 1015.40 1015.25 1014.58 1013.95 1014.08 1013.94 1013.35 1013.35 1012.76 1012.19 1011.94 1011.70 1011.70 1011.90 1011.60 1011.20 1011.08 1010.85 1010.85 1010.69 1010.49
1011.31 1011.26 1011.28 1012.23 1013.16 1014.01 1014.18 1014.65 1014.72 1014.76 1014.97 1014.94 1014.99 1015.13 1015.26 1015.38 1015.35 1015.35 1015.42 1015.21 1015.52 1015.35 1014.95 1014.79 1014.18 1013.54 1013.55 1013.53 1013.32 1012.68 1012.30 1011.75 1011.53 1011.29 1010.68 1010.45 1010.08 1009.50 1009.10 1009.10 1008.87 1008.82 1008.84
1009.91 1010.55 1010.98 1011.68 1012.45 1013.03 1013.02 1013.42 1014.05 1014.11 1014.31 1014.34 1014.34 1014.62 1015.03 1015.02 1015.06 1015.32 1015.41 1015.40 1015.63 1015.52 1015.24 1014.77 1014.20 1013.56 1013.48 1013.79 1012.99 1012.60 1012.41 1011.97 1011.12 1010.91 1010.43 1009.94 1009.73 1008.69 1008.29 1007.91 1007.43 1007.33 1007.35
1009.89 1010.06 1010.59 1011.29 1011.86 1012.22 1012.52 1013.00 1013.49 1013.85 1013.86 1013.67 1013.98 1014.47 1014.78 1014.88 1014.86 1014.89 1014.77 1015.09 1015.03 1014.75 1014.83 1014.71 1014.33 1013.79 1013.69 1013.29 1013.03 1013.08 1012.60 1011.99 1011.36 1010.70 1010.67 1009.26 1008.84 1007.66 1007.36 1006.50 1006.61 1006.38 1006.15
1009.53 1010.06 1010.54 1011.06 1011.41 1011.61 1011.96 1012.72 1013.18 1013.53 1013.65 1013.37 1013.51 1013.72 1013.92 1014.33 1014.50 1014.39 1014.32 1014.21 1014.15 1013.93 1013.71 1013.76 1013.67 1013.53 1013.51 1013.51 1013.52 1013.17 1012.71 1011.91 1011.40 1010.73 1009.72 1008.11 1007.41 1006.49 1006.34 1005.80 1005.47 1005.11 1004.62
1008.84 1009.12 1009.72 1010.12 1010.72 1011.08 1011.50 1011.83 1012.64 1012.57 1012.57 1012.93 1013.12 1012.93 1012.93 1013.19 1014.26 1014.54 1014.43 1013.98 1013.59 1013.26 1013.12 1013.50 1013.76 1013.90 1013.78 1013.56 1013.48 1013.00 1011.77 1011.10 1010.31 1009.83 1009.04 1007.43 1006.86 1006.18 1006.01 1004.82 1004.08 1003.31 1002.69
1007.85 1008.40 1008.98 1009.52 1009.72 1010.27 1010.80 1011.15 1011.67 1011.55 1011.93 1012.27 1012.46 1012.56 1012.77 1013.10 1013.89 1014.55 1014.31 1013.71 1013.26 1012.92 1012.76 1012.94 1013.10 1012.84 1012.45 1011.77 1011.94 1012.09 1011.58 1011.07 1010.34 1009.04 1007.83 1007.28 1006.73 1007.05 1004.93 1004.25 1002.91 1002.23 1001.42
Wind_Speed
2 4 2 3 4 2 0 3 3 4 5 5 6 6 7 6 5 5 5 10 2 3 7 11 12 13 12 12 12 13 13 12 12 12 12 12 13 11 10 10 11 10 9
2 5 4 3 4 4 2 3 4 6 5 5 4 6 7 6 5 6 5 2 6 2 2 10 11 12 13 13 13 13 14 14 13 15 13 13 12 12 12 12 12 12 11
5 6 4 5 5 2 4 5 3 4 5 4 5 5 6 6 5 5 5 4 3 11 6 4 9 10 11 14 15 14 13 13 13 15 14 12 12 13 14 13 13 13 12
8 7 4 5 3 5 5 4 5 5 5 5 5 5 6 5 5 4 4 4 3 6 12 9 4 8 11 13 14 15 14 13 14 13 15 14 14 13 14 14 14 14 13
8 7 5 6 5 6 4 5 5 4 5 5 6 5 4 4 3 4 3 1 5 3 5 13 6 5 6 11 12 13 13 13 14 15 15 16 16 16 15 15 14 14 14
8 6 5 6 5 5 6 3 4 5 5 5 7 5 3 1 3 3 3 3 5 4 6 4 3 8 4 2 5 8 12 14 14 16 16 16 16 17 17 17 16 16 16
6 5 5 6 5 5 3 3 6 5 6 2 7 2 4 4 3 1 4 5 5 5 6 5 5 5 6 7 11 10 8 6 14 13 14 16 16 16 17 18 17 17 17
7 7 6 5 2 3 2 4 4 6 3 2 5 4 2 6 5 3 3 4 5 4 6 6 5 6 5 5 7 10 10 9 7 7 7 11 14 16 16 17 18 18 18
7 6 5 3 3 5 2 3 3 3 5 2 3 5 3 1 3 5 4 4 3 5 4 5 6 6 5 5 1 7 12 10 9 8 7 7 7 8 14 17 18 18 19
6 6 6 4 3 3 1 3 2 4 4 3 1 3 3 6 4 2 5 4 0 1 4 4 3 5 3 4 7 10 8 9 9 8 8 8 10 10 10 9 15 17 19
8 9 8 7 5 6 5 2 2 3 2 5 3 2 1 3 1 5 6 2 2 3 2 2 3 2 3 1 1 7 3 4 7 9 8 8 9 11 12 14 13 13 18
8 9 9 7 6 5 5 4 3 4 4 4 5 3 4 3 2 3 5 5 5 4 2 4 4 3 3 2 2 2 2 4 3 5 7 9 10 10 12 14 16 18 17
7 10 9 8 7 6 4 4 4 3 4 5 4 5 3 4 4 5 5 6 6 5 4 4 3 4 4 4 4 1 6 7 6 7 8 8 9 10 11 13 15 17 19
7 7 9 8 8 7 6 6 6 6 5 5 5 5 7 5 5 5 6 8 8 7 6 6 6 3 5 5 7 6 10 10 5 7 9 9 10 11 13 14 15 16 18
6 7 10 8 8 8 7 8 7 7 5 7 7 7 8 7 6 6 6 6 9 9 9 7 6 4 6 6 5 9 10 7 4 10 11 11 11 12 13 15 16 16 18
8 8 10 9 10 8 8 9 8 8 7 6 6 6 7 8 8 7 5 7 7 9 12 9 8 9 6 7 8 9 12 9 15 15 14 13 12 12 14 16 17 17 18
9 9 8 8 9 10 10 10 10 8 7 8 9 8 8 8 8 7 6 6 7 8 10 11 10 10 9 9 10 10 11 12 11 13 13 12 12 14 16 18 18 18 19
13 12 7 7 7 8 10 12 12 10 10 10 10 9 9 8 7 8 8 8 8 9 10 12 12 11 11 10 10 11 11 11 12 10 7 13 15 18 18 18 19 20 19
12 12 15 12 10 8 12 13 13 12 10 10 10 10 10 9 8 8 9 9 9 7 8 10 10 10 10 11 11 9 11 11 12 17 19 21 20 20 20 20 20 19 19
16 13 13 12 10 13 12 13 14 13 11 11 11 10 10 11 10 10 10 10 9 9 10 11 10 11 5 10 8 8 10 11 11 12 11 15 19 18 19 20 20 22 21
17 14 13 11 10 13 10 14 14 13 12 12 12 12 12 12 8 9 9 8 9 10 9 10 12 11 9 7 10 12 12 12 12 12 13 13 14 13 13 14 17 17 16
18 13 12 13 14 12 15 11 12 12 13 12 10 10 7 7 8 8 8 10 10 10 11 11 12 13 13 12 12 11 12 13 14 12 13 14 14 15 14 15 20 16 17
13 12 10 12 17 16 10 14 12 12 11 11 8 8 8 6 4 11 10 12 14 15 15 11 13 13 13 12 12 11 14 14 15 14 15 16 14 15 15 15 22 15 14
16 12 11 13 16 14 9 11 12 12 12 10 8 5 5 7 7 13 10 11 11 11 11 9 10 12 12 12 12 13 15 16 12 14 14 16 13 15 16 16 24 26 29
16 14 10 12 15 14 13 16 12 13 13 12 7 7 6 5 2 3 8 10 11 10 4 7 7 10 13 14 13 9 11 11 12 13 15 15 14 16 17 17 16 27 30
14 12 11 11 13 12 16 18 17 11 10 8 5 5 5 2 7 4 7 8 9 10 7 10 11 11 14 13 15 12 9 9 11 13 13 14 15 14 13 12 14 14 15
Wind_Direction
233 285 323 300 321 279 287 300 320 336 324 301 332 329 326 315 319 303 317 116 98 282 223 207 204 210 209 209 211 212 210 210 217 221 227 231 236 222 226 236 242 246 247
191 267 247 246 269 280 312 312 342 321 320 321 322 336 316 317 325 307 304 254 138 183 270 213 210 212 218 217 217 220 223 223 224 225 224 232 221 223 226 233 242 248 251
255 270 261 256 256 278 263 240 284 251 289 317 315 315 308 327 323 307 286 303 200 171 182 214 222 216 215 224 226 220 218 226 227 232 225 224 231 233 231 230 236 241 246
232 245 246 251 280 257 268 275 288 316 299 317 321 319 335 316 356 281 263 314 325 295 174 177 207 225 215 219 227 228 228 233 233 238 228 226 231 232 230 234 239 238 238
245 252 252 260 236 268 282 293 294 313 314 305 312 317 340 332 324 49 37 5 59 326 330 140 160 240 232 229 225 227 227 230 236 238 235 234 234 232 235 238 239 239 238
226 226 238 266 258 236 247 287 329 326 309 315 313 312 346 22 10 39 80 65 46 18 30 351 211 169 163 321 272 244 234 226 236 239 237 235 235 236 236 237 237 237 239
235 242 241 224 242 268 334 307 284 250 302 23 277 346 157 206 74 41 41 25 23 36 36 49 15 345 136 134 59 31 13 303 252 237 236 241 239 237 236 237 235 234 237
223 225 249 230 213 287 245 291 279 305 273 27 316 263 272 163 189 73 64 60 19 36 51 61 53 47 357 61 64 60 39 23 5 340 309 251 244 243 241 235 236 235 236
217 229 196 257 177 281 219 210 217 284 294 117 334 318 256 355 345 144 159 78 33 54 44 81 60 65 44 65 344 76 24 14 15 8 344 324 311 280 250 242 239 238 238
214 190 186 180 213 262 140 185 204 294 270 288 183 189 331 5 331 257 169 139 227 79 56 359 52 106 46 40 91 70 27 17 8 4 358 341 329 319 294 274 252 243 238
205 196 188 183 188 226 167 261 221 236 225 304 259 234 123 276 206 307 317 327 302 171 348 307 344 326 124 351 11 90 30 24 359 354 349 342 330 318 306 298 281 265 250
193 203 193 192 190 203 206 221 217 219 275 302 297 295 269 280 280 286 292 291 323 284 255 280 289 318 285 293 240 172 292 276 296 312 321 322 319 313 305 299 291 286 279
207 184 203 197 196 206 204 234 202 227 223 261 232 276 244 267 283 286 279 278 287 283 267 299 249 299 307 283 303 327 295 235 242 274 285 293 300 302 303 299 296 290 281
205 194 199 202 218 203 207 193 202 231 209 228 242 271 302 278 272 276 286 304 297 293 288 236 200 294 281 294 325 267 274 191 235 277 281 280 284 289 294 295 294 292 288
212 192 192 203 213 213 210 198 230 202 222 226 238 242 258 274 276 271 284 287 298 301 300 306 307 238 252 287 325 297 289 281 254 269 268 266 269 272 280 286 284 282 283
219 181 200 194 190 204 222 217 226 211 227 242 241 243 256 274 273 259 283 274 275 292 295 303 301 305 291 293 293 287 281 281 256 243 235 246 256 264 274 275 275 276 276
183 193 208 208 203 193 218 227 247 261 231 237 245 247 249 259 267 273 270 277 278 276 275 292 303 298 305 271 278 280 287 289 280 230 226 234 249 259 264 270 272 271 270
161 179 171 224 248 228 223 230 236 239 226 235 236 242 247 247 234 252 261 268 288 299 294 289 292 293 281 289 277 275 272 286 285 278 228 234 243 253 258 258 258 260 261
162 176 152 192 222 232 235 233 237 240 238 243 243 242 249 250 256 271 287 289 286 285 270 266 284 283 294 288 279 261 263 278 267 250 232 242 246 247 249 247 248 249 247
165 174 178 176 202 239 230 235 235 235 235 235 244 249 252 251 253 259 265 269 269 270 277 267 267 275 260 290 280 273 278 290 298 295 290 261 261 251 237 237 243 248 244
179 185 177 178 202 225 219 231 235 233 231 234 242 246 244 249 253 247 259 274 294 274 288 294 284 301 293 294 305 304 295 299 294 286 283 292 290 282 281 265 268 259 245
189 193 197 198 206 223 219 204 229 229 232 239 249 266 281 269 225 245 237 254 275 275 278 286 290 293 293 291 281 298 306 291 296 291 295 288 288 280 288 285 276 266 261
205 219 204 203 218 227 210 203 205 239 251 245 250 265 285 276 273 266 235 223 235 229 231 263 279 285 295 290 307 303 290 297 291 299 299 284 283 284 282 290 295 273 268
203 206 213 221 226 229 186 146 161 223 238 238 232 230 287 276 273 262 257 267 277 278 271 257 284 298 301 310 302 295 289 284 278 275 262 271 287 297 304 290 290 284 275
208 215 228 234 230 233 169 173 185 223 224 227 212 225 219 227 199 148 257 269 280 286 231 183 222 249 254 257 257 289 284 294 293 303 291 286 299 305 300 296 287 277 271
209 216 236 227 224 229 182 184 195 220 216 238 222 246 168 281 126 184 261 274 277 279 303 305 287 256 242 260 227 241 262 267 275 282 291 296 311 314 299 299 289 293 281